Regional Weather Roundup
Issued by NWS

Home | Current Version | Previous Version | Text Only | Print | Product List | Glossary On
Versions: 1 2 3 4 5 6 7 8 9 10 11 12 13 14 15 16 17 18 19 20 21 22 23 24 25 26 27 28 29 30 31 32 33 34 35 36 37 38 39 40 41 42 43 44 45 46 47 48 49 50
000
ASCA42 TJSJ 010710
RWRPR
PUERTO RICO/U.S. VIRGIN ISLANDS HOURLY WEATHER ROUNDUP
NATIONAL WEATHER SERVICE SAN JUAN PR
300 AM AST SUN MAR 01 2015

PRZ001-004-010800-
PUERTO RICO

CITY           SKY/WX    TMP DP  RH WIND       PRES   REMARKS
SAN JUAN LMM   PTCLDY    73  68  83 NE18G26   30.10F
PONCE          PTCLDY    73  66  78 NE6       30.04F
CEIBA          CLOUDY    77  68  73 E15G21    30.11F
$$

PRZ006-007-010800-
U.S. VIRGIN ISLANDS

CITY           SKY/WX    TMP DP  RH WIND       PRES   REMARKS
$$

HOURLY WEATHER ROUNDUP FOR THE NEWS MEDIA

CITY           SKY/WX    TMP DP  RH WIND       PRES   REMARKS
ORLANDO        PTCLDY    65  63  93 N3        30.34F
NEW YORK       PTCLDY    23   4  44 W5        30.74S WCI  17
NEWARK         PTCLDY    20   5  52 CALM      30.73R
CHICAGO        LGT SNOW  18  14  84 S7        30.42F FOG     WCI   9
HARTFORD       CLEAR      2  -2  83 CALM      30.70F
BOSTON         CLEAR     20   3  48 W5        30.71S WCI  13
DALLAS         LGT RAIN  34  30  86 NE3       30.32F FOG
PHILADELPHIA   PTCLDY    22   9  57 SW5       30.74R WCI  16
LOS ANGELES    MOCLDY    54  47  77 NE5       29.91S
WASHINGTON DC  CLOUDY    19  11  70 CALM      30.70S



USA.gov is the U.S. government's official web portal to all federal, state and local government web resources and services.